Regional Weather Roundup
Issued by NWS Goodland, KS

Home | Current Version | Previous Version | Graphics & Text | Print | Product List | Glossary On
Versions: 1 2 3 4 5 6 7 8 9 10 11 12 13 14 15 16 17 18 19 20 21 22 23 24 25 26 27 28 29 30 31 32 33 34 35 36 37 38 39 40 41 42 43 44 45 46 47 48 49 50
000
ASUS43 KGLD 270608
RWRGLD

GOODLAND FORECAST AREA HOURLY WEATHER ROUNDUP
NATIONAL WEATHER SERVICE GOODLAND KS
1200 AM MDT MON MAR 27 2017

...OFFICIAL OBSERVATIONS...

CITY           SKY/WX    TMP DP  RH WIND       PRES   REMARKS
GOODLAND KS    FOG       37  37 100 SW10      29.93F VSB 1/4
HILL CITY KS   CLOUDY    44  44 100 NW7       29.93R
IMPERIAL NEB   CLEAR     39  37  92 S3        29.93S
MCCOOK NEB     MOCLDY    41  40  96 W5        29.94S
AKRON CO       CLEAR     36  33  89 NW9       29.96S
BURLINGTON CO  CLEAR     34  33  96 SW10      29.96S
LIMON CO       CLEAR     28  28 100 CALM      29.98S
$$

...UNOFFICIAL OBSERVATIONS...

CITY           SKY/WX    TMP DP  RH WIND       PRES   REMARKS
LENORA KS        N/A     40  32  73 CALM        N/A
NORTON KS      PTCLDY    39  36  87 W6        29.92F
SHARON SPRINGS   N/A     40  39  96 CALM        N/A
TRENTON NEB      N/A     38  32  79 CALM        N/A
YUMA CO        FAIR      39  36  87 NW8       29.95R
$$



USA.gov is the U.S. government's official web portal to all federal, state and local government web resources and services.